K42C Weather Reports


Display with metric or nautical units.
time (UTC)temp
F
wind
direction
speed
MPH
gust
MPH
rain 1hr
in
rain 24hr
in
rain mn
in
humidity
%
barometer
mb
20260831233809 80 225 5.0 3.0 0.00 0.25 0.03 78 974.2
20260831233132 80 224 2.0 5.0 0.00 0.25 0.03 77 974.1
20260831232451 80 228 4.0 0.0 0.00 0.25 0.03 77 974.1
20260831225815 80 191 3.0 5.0 0.00 0.25 0.03 73 973.9
20260831225138 81 208 5.0 8.0 0.00 0.25 0.03 72 973.9
20260831224457 81 224 5.0 0.0 0.00 0.25 0.03 70 973.9
20260831223820 81 245 9.0 7.0 0.00 0.25 0.03 69 973.8
20260831222502 82 181 7.0 5.0 0.00 0.25 0.03 68 973.7
20260831221929 82 188 7.0 9.0 0.00 0.25 0.03 68 973.9
20260831221822 82 188 7.0 9.0 0.00 0.25 0.03 68 973.9
20260831221145 82 280 9.0 6.0 0.00 0.25 0.03 67 973.8
20260831220816 82 198 8.0 9.0 0.00 0.25 0.03 66 973.8
20260831220504 82 198 8.0 9.0 0.00 0.25 0.03 66 973.8
20260831215827 83 228 8.0 6.0 0.00 0.25 0.03 65 973.8
20260831215357 83 186 6.0 8.0 0.00 0.25 0.03 65 973.6
20260831215146 83 186 6.0 8.0 0.00 0.25 0.03 65 973.6
20260831214509 83 194 6.0 4.0 0.00 0.25 0.03 65 973.5
20260831214026 83 165 10.0 14.0 0.00 0.25 0.03 65 973.5
20260831213828 83 165 10.0 14.0 0.00 0.25 0.03 65 973.5
20260831213151 83 207 10.0 8.0 0.00 0.25 0.03 64 973.5
20260831212510 83 193 8.0 8.0 0.00 0.25 0.03 64 973.6
20260831212102 83 222 5.0 9.0 0.00 0.25 0.03 63 973.6
20260831211833 83 222 5.0 9.0 0.00 0.25 0.03 63 973.6
20260831211153 83 204 6.0 5.0 0.00 0.25 0.03 63 973.6
20260831210516 83 198 9.0 8.0 0.00 0.25 0.03 62 973.6
20260831210214 83 274 8.0 8.0 0.00 0.25 0.03 64 973.6
20260831205835 83 274 8.0 8.0 0.00 0.25 0.03 64 973.6
20260831205158 83 181 11.0 7.0 0.00 0.25 0.03 64 973.4
20260831204718 83 169 8.0 8.0 0.00 0.25 0.03 65 973.3
20260831204517 83 169 8.0 8.0 0.00 0.25 0.03 65 973.3
20260831203840 83 181 11.0 11.0 0.00 0.25 0.03 66 973.4
20260831203442 83 228 10.0 5.0 0.00 0.25 0.03 67 973.5
20260831203159 83 228 10.0 5.0 0.00 0.25 0.03 67 973.5
20260831202522 83 194 8.0 6.0 0.00 0.25 0.03 69 973.5
20260831201842 83 149 8.0 13.0 0.00 0.25 0.03 70 973.5
20260831201205 83 218 11.0 8.0 0.00 0.25 0.03 71 973.7
20260831200524 83 172 5.0 12.0 0.00 0.25 0.03 71 973.9
20260831200143 82 222 6.0 5.0 0.01 0.25 0.03 74 973.9
20260831195847 82 222 6.0 5.0 0.01 0.25 0.03 74 973.9
20260831195206 82 219 10.0 12.0 0.01 0.25 0.03 74 974.0
20260831194529 82 210 6.0 10.0 0.01 0.25 0.03 75 974.1
20260831194057 81 166 9.0 8.0 0.01 0.25 0.03 78 974.2
20260831193848 81 166 9.0 8.0 0.01 0.25 0.03 78 974.2
20260831193212 81 210 8.0 6.0 0.01 0.25 0.03 78 974.2
20260831192531 81 155 7.0 9.0 0.01 0.25 0.03 77 974.4
20260831191854 81 211 10.0 8.0 0.01 0.25 0.03 76 974.4
20260831191214 81 180 9.0 8.0 0.01 0.25 0.03 79 974.4
20260831190805 80 150 9.0 7.0 0.01 0.25 0.03 82 974.5
20260831190537 80 150 9.0 7.0 0.01 0.25 0.03 82 974.5
20260831185856 79 245 13.0 5.0 0.00 0.25 0.03 84 974.7
20260831185519 78 187 7.0 9.0 0.00 0.25 0.03 89 974.8
20260831185219 78 187 7.0 9.0 0.00 0.25 0.03 89 974.8
20260831184538 77 201 7.0 9.0 0.00 0.25 0.03 90 974.9
20260831183901 78 183 9.0 7.0 0.00 0.25 0.03 86 974.7
20260831183221 78 195 9.0 0.0 0.00 0.25 0.02 84 975.0
20260831182735 78 205 6.0 11.0 0.00 0.25 0.02 83 975.3
20260831182544 78 205 6.0 11.0 0.00 0.25 0.02 83 975.3
20260831182156 79 167 8.0 8.0 0.00 0.25 0.02 81 975.3
20260831181903 79 167 8.0 8.0 0.00 0.25 0.02 81 975.3
20260831181413 79 186 6.0 7.0 0.00 0.25 0.02 83 975.1
20260831181226 79 186 6.0 7.0 0.00 0.25 0.02 83 975.1
20260831180836 79 224 6.0 9.0 0.00 0.25 0.02 84 975.1
20260831180546 79 224 6.0 9.0 0.00 0.25 0.02 84 975.1
20260831175443 78 166 7.0 9.0 0.01 0.25 0.02 86 975.2
20260831175228 78 166 7.0 9.0 0.01 0.25 0.02 86 975.2
20260831174732 79 181 5.0 12.0 0.01 0.25 0.02 86 975.1
20260831174551 79 181 5.0 12.0 0.01 0.25 0.02 86 975.1
20260831173911 79 176 9.0 6.0 0.01 0.25 0.02 83 975.1
20260831173619 80 207 11.0 6.0 0.01 0.25 0.02 79 975.1
20260831173234 80 207 11.0 6.0 0.01 0.25 0.02 79 975.1
20260831172800 81 170 9.0 9.0 0.01 0.25 0.02 78 975.3
20260831172553 81 170 9.0 9.0 0.01 0.25 0.02 78 975.3
20260831171916 81 195 9.0 9.0 0.01 0.25 0.02 78 975.5
20260831171436 81 167 11.0 12.0 0.01 0.25 0.02 78 975.4
20260831171236 81 167 11.0 12.0 0.01 0.25 0.02 78 975.4
20260831170840 80 162 12.0 8.0 0.01 0.25 0.02 81 975.4
20260831170559 80 162 12.0 8.0 0.01 0.25 0.02 81 975.4
20260831165456 78 170 9.0 9.0 0.00 0.25 0.02 89 975.4
20260831165241 78 170 9.0 9.0 0.00 0.25 0.02 89 975.4
20260831164830 77 191 9.0 6.0 0.00 0.25 0.01 91 975.6
20260831164601 77 191 9.0 6.0 0.00 0.25 0.01 91 975.6
20260831164256 76 190 11.0 10.0 0.00 0.25 0.01 92 975.8
20260831163924 76 190 11.0 10.0 0.00 0.25 0.01 92 975.8
20260831163000 76 218 6.0 4.0 0.00 0.25 0.01 95 976.2
20260831162606 76 218 6.0 4.0 0.00 0.25 0.01 95 976.2
20260831162241 76 183 8.0 8.0 0.00 0.25 0.01 95 976.2
20260831161926 76 183 8.0 8.0 0.00 0.25 0.01 95 976.2
20260831161249 76 195 6.0 5.0 0.00 0.25 0.01 96 976.6
20260831160608 75 198 3.0 0.0 0.00 0.25 0.01 97 976.6
20260831160152 75 149 5.0 7.0 0.00 0.25 0.01 98 976.6
20260831155932 75 149 5.0 7.0 0.00 0.25 0.01 98 976.6
20260831155511 75 152 7.0 4.0 0.00 0.25 0.01 99 976.7
20260831155251 75 152 7.0 4.0 0.00 0.25 0.01 99 976.7
20260831154848 74 188 9.0 7.0 0.00 0.25 0.01 100 976.6
20260831154614 74 188 9.0 7.0 0.00 0.25 0.01 100 976.6
20260831154139 73 236 9.0 6.0 0.00 0.25 0.01 100 976.8
20260831153934 73 236 9.0 6.0 0.00 0.25 0.01 100 976.8
20260831153455 73 165 8.0 7.0 0.00 0.25 0.01 100 977.0
20260831153257 73 165 8.0 7.0 0.00 0.25 0.01 100 977.0
20260831152616 72 159 9.0 9.0 0.00 0.25 0.01 100 977.0
20260831151939 72 132 8.0 8.0 0.00 0.25 0.01 100 977.2
20260831151259 72 179 8.0 10.0 0.00 0.25 0.01 100 977.3
20260831150720 71 163 8.0 7.0 0.00 0.25 0.01 100 977.4
20260831150622 71 163 8.0 7.0 0.00 0.25 0.01 100 977.4
20260831150109 71 172 10.0 8.0 0.00 0.25 0.01 100 977.4
20260831145941 71 172 10.0 8.0 0.00 0.25 0.01 100 977.4
20260831145306 71 153 7.0 9.0 0.00 0.25 0.01 100 977.4
20260831141556 70 143 6.0 6.0 0.00 0.25 0.01 100 977.6
20260831141453 70 143 6.0 6.0 0.00 0.25 0.01 100 977.6
20260831141312 70 143 6.0 6.0 0.00 0.25 0.01 100 977.6
20260831140901 69 111 4.0 0.0 0.00 0.25 0.01 100 977.7
20260831140632 69 111 4.0 0.0 0.00 0.25 0.01 100 977.7
20260831135632 69 148 5.0 6.0 0.01 0.25 0.01 100 977.6
20260831135314 69 148 5.0 6.0 0.01 0.25 0.01 100 977.6
20260831134637 69 129 5.0 3.0 0.01 0.25 0.01 100 977.7
20260831133957 69 127 0.0 0.0 0.01 0.25 0.01 100 977.8
20260831133534 69 94 5.0 4.0 0.01 0.25 0.01 100 977.8
20260831133320 69 94 5.0 4.0 0.01 0.25 0.01 100 977.8
20260831132946 69 118 5.0 5.0 0.01 0.25 0.01 100 977.8
20260831132639 69 118 5.0 5.0 0.01 0.25 0.01 100 977.8
20260831132002 69 125 5.0 3.0 0.01 0.25 0.01 100 977.8
20260831131551 69 148 5.0 5.0 0.01 0.25 0.01 100 977.8
20260831131503 69 148 5.0 5.0 0.01 0.25 0.01 100 977.8
20260831131322 69 148 5.0 5.0 0.01 0.25 0.01 100 977.8
20260831130004 69 15 0.0 0.0 0.01 0.25 0.01 100 978.3
20260831125327 69 94 0.0 0.0 0.00 0.25 0.01 100 978.0
20260831124647 69 135 4.0 4.0 0.00 0.25 0.01 100 978.1
20260831124010 69 141 6.0 7.0 0.00 0.25 0.01 100 978.0
20260831123329 69 188 0.0 0.0 0.00 0.25 0.00 100 977.9
20260831121335 69 188 0.0 0.0 0.00 0.25 0.00 100 978.1
20260831120653 69 188 0.0 0.0 0.00 0.25 0.00 100 978.2
20260831120018 69 248 4.0 4.0 0.00 0.25 0.00 100 978.0
20260831115515 69 195 3.0 0.0 0.00 0.25 0.00 100 977.6
20260831115337 69 195 3.0 0.0 0.00 0.25 0.00 100 977.6
20260831113647 68 169 0.0 0.0 0.00 0.25 0.00 100 977.3
20260831113343 68 169 0.0 0.0 0.00 0.25 0.00 100 977.3
20260831112702 68 219 0.0 0.0 0.00 0.25 0.00 100 977.1
20260831112442 68 219 0.0 0.0 0.00 0.25 0.00 100 977.1
20260831112025 68 219 0.0 0.0 0.00 0.25 0.00 100 977.1
20260831111345 68 219 0.0 0.0 0.00 0.25 0.00 100 977.1
20260831103616 68 219 0.0 0.0 0.00 0.25 0.00 100 977.0
20260831103352 68 219 0.0 0.0 0.00 0.25 0.00 100 977.0
20260831102944 68 219 0.0 0.0 0.00 0.25 0.00 100 977.0
20260831102715 68 219 0.0 0.0 0.00 0.25 0.00 100 977.0
20260831102151 68 219 0.0 0.0 0.00 0.25 0.00 100 977.0
20260831102035 68 219 0.0 0.0 0.00 0.25 0.00 100 977.0
20260831101514 68 219 0.0 0.0 0.00 0.25 0.00 100 977.1
20260831101358 68 219 0.0 0.0 0.00 0.25 0.00 100 977.1
20260831100905 68 219 0.0 0.0 0.00 0.25 0.00 100 977.3
20260831100717 68 219 0.0 0.0 0.00 0.25 0.00 100 977.3
20260831095550 68 219 0.0 0.0 0.00 0.25 0.00 100 977.5
20260831095400 68 219 0.0 0.0 0.00 0.25 0.00 100 977.5
20260831094926 68 219 0.0 0.0 0.00 0.25 0.00 100 977.7
20260831094723 68 219 0.0 0.0 0.00 0.25 0.00 100 977.7
20260831094159 68 219 0.0 0.0 0.00 0.25 0.00 100 977.8
20260831094042 68 219 0.0 0.0 0.00 0.25 0.00 100 977.8
20260831093550 68 219 0.0 0.0 0.00 0.25 0.00 100 978.0
20260831093405 68 219 0.0 0.0 0.00 0.25 0.00 100 978.0
20260831092307 68 219 0.0 0.0 0.00 0.25 0.00 100 978.0
20260831092048 68 219 0.0 0.0 0.00 0.25 0.00 100 978.0
20260831091524 68 219 0.0 0.0 0.00 0.25 0.00 100 977.9
20260831091407 68 219 0.0 0.0 0.00 0.25 0.00 100 977.9
20260831085412 68 219 0.0 0.0 0.00 0.25 0.00 100 978.0
20260831085017 68 219 0.0 0.0 0.00 0.25 0.00 100 977.8
20260831084732 68 219 0.0 0.0 0.00 0.25 0.00 100 977.8
20260831084244 68 219 0.0 0.0 0.00 0.25 0.00 100 977.7
20260831084055 68 219 0.0 0.0 0.00 0.25 0.00 100 977.7
20260831083619 68 219 0.0 0.0 0.00 0.25 0.00 100 977.7
20260831083414 68 219 0.0 0.0 0.00 0.25 0.00 100 977.7
20260831082956 68 219 0.0 0.0 0.00 0.25 0.00 100 977.6
20260831082737 68 219 0.0 0.0 0.00 0.25 0.00 100 977.6
20260831082256 68 219 0.0 0.0 0.00 0.25 0.00 100 977.5
20260831082057 68 219 0.0 0.0 0.00 0.25 0.00 100 977.5
20260831081420 68 219 0.0 0.0 0.00 0.25 0.00 100 977.5
20260831075422 69 219 0.0 0.0 0.00 0.25 0.00 100 977.6
20260831074745 69 219 0.0 0.0 0.00 0.25 0.00 100 977.6
20260831074239 69 219 0.0 0.0 0.00 0.25 0.00 100 977.6
20260831074104 69 219 0.0 0.0 0.00 0.25 0.00 100 977.6
20260831073625 69 219 0.0 0.0 0.00 0.25 0.00 100 977.6
20260831073427 69 219 0.0 0.0 0.00 0.25 0.00 100 977.6
20260831072929 69 219 0.0 0.0 0.00 0.25 0.00 100 977.6
20260831072747 69 219 0.0 0.0 0.00 0.25 0.00 100 977.6
20260831072216 69 219 0.0 0.0 0.00 0.25 0.00 100 977.6
20260831072110 69 219 0.0 0.0 0.00 0.25 0.00 100 977.6
20260831071618 69 219 0.0 0.0 0.00 0.25 0.00 100 977.7
20260831071429 69 219 0.0 0.0 0.00 0.25 0.00 100 977.7
20260831070752 69 219 0.0 0.0 0.00 0.25 0.00 100 977.8
20260831070159 69 219 0.0 0.0 0.00 0.25 0.00 100 977.7
20260831070111 69 219 0.0 0.0 0.00 0.25 0.00 100 977.7
20260831065622 69 219 0.0 0.0 0.00 0.25 0.00 100 977.8
20260831065434 69 219 0.0 0.0 0.00 0.25 0.00 100 977.8
20260831064859 69 219 0.0 0.0 0.00 0.25 0.00 100 977.9
20260831064754 69 219 0.0 0.0 0.00 0.25 0.00 100 977.9
20260831064117 69 219 0.0 0.0 0.00 0.25 0.00 100 978.0
20260831063613 69 219 0.0 0.0 0.00 0.25 0.00 100 978.0
20260831063436 69 219 0.0 0.0 0.00 0.25 0.00 100 978.0
20260831062942 69 219 0.0 0.0 0.00 0.25 0.00 100 977.8
20260831062759 69 219 0.0 0.0 0.00 0.25 0.00 100 977.8
20260831062211 69 219 0.0 0.0 0.00 0.25 0.00 100 977.8
20260831062119 69 219 0.0 0.0 0.00 0.25 0.00 100 977.8
20260831060925 69 219 0.0 0.0 0.00 0.25 0.00 100 977.7
20260831060801 69 219 0.0 0.0 0.00 0.25 0.00 100 977.7
20260831060303 70 219 0.0 0.0 0.00 0.25 0.00 100 977.7
20260831060124 70 219 0.0 0.0 0.00 0.25 0.00 100 977.7
20260831055443 70 219 0.0 0.0 0.00 0.25 0.00 100 977.6
20260831055019 70 219 0.0 0.0 0.00 0.25 0.00 100 977.8
20260831054806 70 219 0.0 0.0 0.00 0.25 0.00 100 977.8
20260831054126 70 219 0.0 0.0 0.00 0.25 0.00 100 977.8
20260831053449 70 219 0.0 0.0 0.00 0.25 0.00 100 977.8
20260831052808 70 219 0.0 0.0 0.00 0.25 0.00 100 977.9
20260831052131 70 219 0.0 0.0 0.00 0.25 0.00 100 977.9
20260831050813 70 219 0.0 0.0 0.00 0.25 0.00 100 977.8
20260831050133 70 166 0.0 0.0 0.00 0.25 0.00 100 977.8
20260831045456 70 166 0.0 0.0 0.00 0.25 0.00 100 977.6
20260831045249 70 166 0.0 0.0 0.00 0.25 0.00 100 977.7
20260831044815 70 166 0.0 0.0 0.00 0.25 0.00 100 977.7
20260831044138 70 184 0.0 0.0 0.00 0.25 0.00 100 977.6
20260831043458 70 184 0.0 0.0 0.00 0.25 0.00 100 977.7
20260831042820 70 184 0.0 0.0 0.00 0.25 0.00 100 977.8
20260831041733 70 184 0.0 0.0 0.00 0.25 0.00 100 977.8
20260831041503 70 184 0.0 0.0 0.00 0.25 0.00 100 977.8
20260831041148 70 184 0.0 0.0 0.00 0.25 0.00 100 977.8
20260831040822 70 184 0.0 0.0 0.00 0.25 0.00 100 977.8
20260831040145 70 184 0.0 0.0 0.00 0.25 0.00 100 977.8
20260831035504 71 198 0.0 0.0 0.00 0.01 0.25 100 978.0
20260831034827 71 198 0.0 0.0 0.00 0.01 0.25 100 978.0
20260831033003 71 198 0.0 0.0 0.00 0.01 0.25 100 977.7
20260831032829 71 198 0.0 0.0 0.00 0.01 0.25 100 977.7
20260831031638 71 198 0.0 0.0 0.00 0.01 0.25 100 977.8
20260831031511 71 198 0.0 0.0 0.00 0.01 0.25 100 977.8
20260831030154 71 201 0.0 0.0 0.00 0.01 0.25 100 977.8
20260831025516 72 201 0.0 0.0 0.00 0.01 0.25 100 977.7
20260831024836 72 201 0.0 0.0 0.00 0.01 0.25 100 977.8
20260831024309 72 184 0.0 0.0 0.00 0.01 0.25 100 977.9
20260831024159 72 184 0.0 0.0 0.00 0.01 0.25 100 977.9
20260831023518 72 184 0.0 0.0 0.00 0.01 0.25 100 977.9
20260831022841 72 195 0.0 0.0 0.00 0.01 0.25 100 977.9
20260831022200 72 195 0.0 0.0 0.00 0.01 0.25 100 977.7
20260831021523 72 197 0.0 0.0 0.00 0.01 0.25 100 977.7
20260831020843 72 197 0.0 0.0 0.00 0.01 0.25 100 977.6
20260831020205 73 197 0.0 0.0 0.00 0.01 0.25 100 977.6
20260831015525 73 197 0.0 0.0 0.00 0.01 0.25 99 977.5
20260831014848 73 359 0.0 0.0 0.00 0.01 0.25 99 977.3
20260831014528 73 359 0.0 0.0 0.00 0.01 0.25 98 977.1
20260831014207 73 359 0.0 0.0 0.00 0.01 0.25 98 977.1
20260831013530 73 359 2.0 0.0 0.00 0.01 0.25 98 977.0
20260831013112 73 204 1.0 0.0 0.00 0.01 0.25 98 977.1
20260831012849 73 204 1.0 0.0 0.00 0.01 0.25 98 977.1
20260831012501 73 0 0.0 0.0 0.00 0.01 0.25 97 977.2
20260831012212 73 0 0.0 0.0 0.00 0.01 0.25 97 977.2
20260831011531 73 0 0.0 5.0 0.00 0.01 0.25 97 977.0
20260831010854 74 163 4.0 0.0 0.00 0.01 0.25 96 976.9
20260831010213 74 173 1.0 0.0 0.00 0.01 0.25 96 976.9
20260831005536 74 172 4.0 0.0 0.00 0.01 0.25 96 976.6
20260831004856 74 173 4.0 5.0 0.00 0.01 0.25 95 976.6
20260831004439 74 1 1.0 3.0 0.00 0.01 0.25 95 976.6
20260831004218 74 1 1.0 3.0 0.00 0.01 0.25 95 976.6
20260831003734 74 219 3.0 0.0 0.00 0.01 0.25 95 976.5
20260831003538 74 219 3.0 0.0 0.00 0.01 0.25 95 976.5
20260831003113 74 263 0.0 3.0 0.00 0.01 0.25 94 976.3
20260831002901 74 263 0.0 3.0 0.00 0.01 0.25 94 976.3
20260831002426 74 217 6.0 9.0 0.00 0.01 0.25 94 976.2
20260831002220 74 217 6.0 9.0 0.00 0.01 0.25 94 976.2
20260831001543 74 208 5.0 5.0 0.00 0.01 0.25 93 976.2
20260831000902 75 277 3.0 3.0 0.00 0.01 0.25 93 976.3
20260831000226 75 177 5.0 6.0 0.00 0.01 0.25 92 976.2
20260830235544 75 218 5.0 3.0 0.00 0.01 0.25 92 976.2
20260830234907 75 207 5.0 0.0 0.00 0.01 0.25 91 976.2
20260830234450 76 250 0.0 9.0 0.00 0.01 0.25 91 976.1